INTELSAT 906 (IS-906) (27513 NORAD) Tracking and Keplerian Element Data

This shows tracking and keplerian element data for the satellite.

Feedback or suggestion? Click here.




ElementValue
Catalog27513
NameINTELSAT 906 (IS-906)
Epoch Orbit5807
Epoch Day201.57688319
Epoch Year2018
RAAN105.3513
Inclination0.0301
Eccentricity0.0003244
Argument of Perigee38.7278
Mean Anonmoly66.0355
Mean Motion1.00272849
Decay Rate-2E-08
L11 27513U 02041A 18201.57688319 -.00000002 00000-0 00000-0 0 9997
L22 27513 0.0301 105.3513 0003244 38.7278 66.0355 1.00272849 58078

Live tracking and technical data element details for INTELSAT 906 (IS-906) (NORAD 27513). INTELSAT 906 (IS-906) can be tracked NOW for your location showing map with azimuth and elevation plus other details from your city location.

Track the satellite on the map from your city or location and see movement details for azimuth, elevation, latitude, longitude, range, height, and movement on the map or in text.







IsCatalogInMostPopularTable: catalog: 27513, numindb: 43
Update: records affected: 1



GetName: 27513 INTELSAT 906 (IS-906)

Hit Count: updated at: Sat, 21 Jul 2018 07:57:28 GMT